"Pseudo-MPEC" for P21JlGw

Created 2023 Sep 27 2:22:16 UT using Find_Orb

Click here for an explanation of pseudo-MPECs

 
 Astrometry: 
     P21JlGw* C2023 09 13Ej4u0*vXBSeFx,D3AvC?Rf7:/?7R?Sv-(`7Xs41^Zg6A27TSgQM@F52
     P21JlGw  C2023 09 134M]KYVX0dapU?ii+'$Lry^c-AstrometrylP^?JV7^)tc=+BMo]wF52
     P21JlGw  C2023 09 13JVAnaL4tKL7XrhpklM(+0WnMbredacted;jTWM,[*MOE)!3$:o82F52
     P21JlGw  C2023 09 137/$*\,iF=7t%((6/hr9oG9y#W)@LvSd+1HAqkg5(;n0x+@f#3\$5F52
     P21JlGw  C2023 09 13[-l?M;Z\k^A=Ob,2Xclickv0+pvb*2A0Gq9AE2\YH6%ahereWB6tF51
     P21JlGw  C2023 09 13NHfor,NE4;lPy%explanationqdt[toZ,,:.BsoT;`NCb4K-P_#BF51

Station data:
(F51) Pan-STARRS 1, Haleakala  (N20.707234 W156.255910)  US/Hawaii.
   Observers J. Bulger, T. Lowe, A. Schultz, M. Willman. Measurers K.
   Chambers, S. Chastel, T. de Boer, L. Denneau, J. Fairlamb, H. Flewelling,
   M. Huber, C.-C. Lin, E. Magnier, Y. Ramanjooloo, R. Wainscoat, R. Weryk.
   1.8-m Ritchey-Chrétien + CCD.
(F52) Pan-STARRS 2, Haleakala  (N20.707382 W156.255910)  US/Hawaii.
   Observers J. Bulger, T. Dukes, T. Lowe, A. Schultz, M. Willman. Measurers
   K. Chambers, S. Chastel, T. de Boer, L. Denneau, J. Fairlamb, H.
   Flewelling, M. Huber, C.-C. Lin, E. Magnier, Y. Ramanjooloo, R. Wainscoat,
   R. Weryk. 1.8-m Ritchey-Chrétien + CCD.

Orbital elements:  P21JlGw
   Perihelion 2022 Oct 27.65572 +/- 309 TT = 15:44:14 (JD 2459880.15572)
Epoch 2023 Sep 13.0 TT = JDT 2460200.5   Earth MOID: 0.0759      AutoNEOCP
M 160.57523080 +/- 90               (J2000 ecliptic)
n   0.50125830 +/- 0.268            Peri.  346.42932 +/- 60
a   1.56950123 +/- 0.558            Node   173.09670 +/- 36
e   0.3224961 +/- 0.16              Incl.   18.28648 +/- 20
P   1.97/718.18d           H 19.59  G  0.15   U 11.9  SR
q 1.06334314 +/- 0.697    Q 2.07565932 +/- 1.5
From 6 observations 2023 Sept. 13 (2.9 hr); mean residual 0".15
Residuals in arcseconds: 
230913 F52  .03-  .10+    230913 F52  .17+  .08+    230913 F51  .16+  .25-    
230913 F52  .07-  .17-    230913 F52  .06-  .01-    230913 F51  .16-  .25+    

Ephemerides (geocentric):
Date (UTC) HH   RA             Dec           delta  r     elong  mag " sig PA
---- --------  ------------   ------------  ------ ------ -----  --- --------
2023 09 27 02  20 43 09.571   -07 52 51.95  1.3043 2.0689 127.0 22.8 2912  89
2023 09 27 03  20 43 09.593   -07 53 23.83  1.3047 2.0689 127.0 22.8 2926  89
2023 09 27 04  20 43 09.619   -07 53 55.68  1.3051 2.0690 126.9 22.8 2940  89
2023 09 27 05  20 43 09.648   -07 54 27.50  1.3056 2.0690 126.9 22.8 2954  89
2023 09 27 06  20 43 09.682   -07 54 59.30  1.3060 2.0690 126.8 22.8 2968  89
2023 09 27 07  20 43 09.719   -07 55 31.06  1.3064 2.0690 126.8 22.8 2982  89
2023 09 27 08  20 43 09.759   -07 56 02.80  1.3068 2.0691 126.8 22.8 2996  89
2023 09 27 09  20 43 09.804   -07 56 34.51  1.3073 2.0691 126.7 22.8 3010  89
2023 09 27 10  20 43 09.852   -07 57 06.19  1.3077 2.0691 126.7 22.8 3024  89
2023 09 27 11  20 43 09.904   -07 57 37.84  1.3081 2.0691 126.6 22.8 3038  89
2023 09 27 12  20 43 09.960   -07 58 09.46  1.3086 2.0691 126.6 22.8 3053  89
2023 09 27 13  20 43 10.020   -07 58 41.05  1.3090 2.0692 126.6 22.8 3067  89
2023 09 27 14  20 43 10.084   -07 59 12.62  1.3094 2.0692 126.5 22.8 3081  89
2023 09 27 15  20 43 10.151   -07 59 44.15  1.3098 2.0692 126.5 22.8 3095  89
2023 09 27 16  20 43 10.222   -08 00 15.66  1.3103 2.0692 126.4 22.8 3110  89
2023 09 27 17  20 43 10.297   -08 00 47.14  1.3107 2.0693 126.4 22.8 3124  89
2023 09 27 18  20 43 10.375   -08 01 18.59  1.3111 2.0693 126.4 22.8 3138  89
2023 09 27 19  20 43 10.457   -08 01 50.01  1.3116 2.0693 126.3 22.8 3153  89
2023 09 27 20  20 43 10.543   -08 02 21.40  1.3120 2.0693 126.3 22.8 3167  89
2023 09 27 21  20 43 10.633   -08 02 52.77  1.3124 2.0693 126.2 22.8 3182  89
2023 09 27 22  20 43 10.727   -08 03 24.10  1.3129 2.0694 126.2 22.8 3196  89
2023 09 27 23  20 43 10.824   -08 03 55.41  1.3133 2.0694 126.2 22.9 3211  89
2023 09 28 00  20 43 10.925   -08 04 26.69  1.3137 2.0694 126.1 22.9 3225  89
2023 09 28 01  20 43 11.030   -08 04 57.94  1.3142 2.0694 126.1 22.9 3240  89
2023 09 28 02  20 43 11.138   -08 05 29.16  1.3146 2.0695 126.0 22.9 3255  89
2023 09 28 03  20 43 11.251   -08 06 00.35  1.3150 2.0695 126.0 22.9 3269  89
2023 09 28 04  20 43 11.367   -08 06 31.51  1.3155 2.0695 126.0 22.9 3284  89
2023 09 28 05  20 43 11.486   -08 07 02.64  1.3159 2.0695 125.9 22.9 3299  89
2023 09 28 06  20 43 11.610   -08 07 33.75  1.3163 2.0695 125.9 22.9 3314  89
2023 09 28 07  20 43 11.737   -08 08 04.83  1.3168 2.0696 125.8 22.9 3328  89
2023 09 28 08  20 43 11.868   -08 08 35.88  1.3172 2.0696 125.8 22.9 3343  89
2023 09 28 09  20 43 12.003   -08 09 06.90  1.3176 2.0696 125.7 22.9 3358  89
2023 09 28 10  20 43 12.141   -08 09 37.89  1.3181 2.0696 125.7 22.9 3373  89
2023 09 28 11  20 43 12.284   -08 10 08.85  1.3185 2.0696 125.7 22.9 3388  89
2023 09 28 12  20 43 12.430   -08 10 39.78  1.3189 2.0697 125.6 22.9 3403  89
2023 09 28 13  20 43 12.579   -08 11 10.69  1.3194 2.0697 125.6 22.9 3418  89
2023 09 28 14  20 43 12.733   -08 11 41.56  1.3198 2.0697 125.5 22.9 3433  89
2023 09 28 15  20 43 12.890   -08 12 12.41  1.3202 2.0697 125.5 22.9 3448  89
2023 09 28 16  20 43 13.050   -08 12 43.23  1.3207 2.0698 125.5 22.9 3463  89
2023 09 28 17  20 43 13.215   -08 13 14.02  1.3211 2.0698 125.4 22.9 3478  89
2023 09 28 18  20 43 13.383   -08 13 44.78  1.3215 2.0698 125.4 22.9 3493  89
2023 09 28 19  20 43 13.555   -08 14 15.51  1.3220 2.0698 125.3 22.9 3509  89
2023 09 28 20  20 43 13.731   -08 14 46.22  1.3224 2.0698 125.3 22.9 3524  89
2023 09 28 21  20 43 13.910   -08 15 16.89  1.3229 2.0699 125.3 22.9 3539  89
2023 09 28 22  20 43 14.093   -08 15 47.54  1.3233 2.0699 125.2 22.9 3554  89
2023 09 28 23  20 43 14.280   -08 16 18.15  1.3237 2.0699 125.2 22.9 3570  88
2023 09 29 00  20 43 14.471   -08 16 48.74  1.3242 2.0699 125.1 22.9 3585  88
2023 09 29 01  20 43 14.665   -08 17 19.30  1.3246 2.0699 125.1 22.9 3601  88